Location: Pasadena, ca
(34.1243°N, 118.1037°W)
Time: 08:57:42
(UTC-07:00)

OTV 5 (USA 277) - Visible Passes

Search period start: 24 September 2017 00:00
Search period end: 04 October 2017 00:00
Orbit: 404 x 417 km, 43.0° (Epoch: 07 September)

Date Brightness Start Highest point End Pass type
(mag) Time Alt. Az. Time Alt. Az. Time Alt. Az.
24 Sep ? 05:29:03 13° NNW 05:30:37 17° N 05:32:52 10° NE visible
25 Sep ? 04:40:25 15° NNE 04:40:25 15° NNE 04:41:40 10° NE visible
25 Sep ? 06:14:43 10° NW 06:17:24 22° NNE 06:20:04 10° ENE visible
26 Sep ? 05:24:35 14° NNW 05:26:10 19° N 05:28:38 10° ENE visible
27 Sep ? 04:36:02 15° NNE 04:36:02 15° NNE 04:37:15 10° NE visible
27 Sep ? 06:09:41 10° NW 06:12:48 38° NNE 06:15:54 10° E visible
28 Sep ? 05:20:19 21° NNW 05:21:39 28° NNE 05:24:32 10° E visible
29 Sep ? 04:31:55 17° NE 04:31:55 17° NE 04:33:08 10° ENE visible
29 Sep ? 06:04:45 10° WNW 06:08:02 89° SW 06:11:19 10° ESE visible
30 Sep ? 05:16:25 48° NNW 05:16:59 57° NNE 05:20:13 10° ESE visible
01 Oct ? 04:28:15 15° E 04:28:15 15° E 04:28:58 10° E visible
01 Oct ? 06:01:03 16° W 06:03:06 30° SW 06:06:02 10° SSE visible
02 Oct ? 05:13:00 38° SSE 05:13:00 38° SSE 05:15:19 10° SE visible
03 Oct ? 05:57:54 11° SW 05:57:59 11° SW 05:58:50 10° SSW visible
